QPF
0.00 0.00 0.00 0.00 0.00 0.00 0.00 0.00 0.00 0.00 0.00 0.00 0.00 0.00 0.00 0.00 0.00 0.00 0.00 0.00 0.00 0.00 0.00 0.00 0.00 0.00 0.00 0.00 0.00 0.00 0.00 0.00 0.00 0.00 0.00 0.00 0.00 0.00 0.00 0.00 0.00 0.00 0.00 0.00 0.01 0.01 0.01 0.01 0.01
0.00 0.00 0.00 0.00 0.00 0.00 0.00 0.00 0.00 0.00 0.00 0.00 0.00 0.00 0.00 0.00 0.00 0.00 0.00 0.00 0.00 0.00 0.00 0.00 0.00 0.00 0.00 0.00 0.00 0.00 0.00 0.00 0.00 0.00 0.00 0.00 0.00 0.00 0.00 0.00 0.00 0.00 0.00 0.00 0.00 0.01 0.01 0.01 0.01
0.00 0.00 0.00 0.00 0.00 0.00 0.00 0.00 0.00 0.00 0.00 0.00 0.00 0.00 0.00 0.00 0.00 0.00 0.00 0.00 0.00 0.00 0.00 0.00 0.00 0.00 0.00 0.00 0.00 0.00 0.00 0.00 0.00 0.00 0.00 0.00 0.00 0.00 0.00 0.00 0.00 0.00 0.00 0.00 0.00 0.01 0.01 0.01 0.00
0.00 0.00 0.00 0.00 0.00 0.00 0.00 0.00 0.00 0.00 0.00 0.00 0.00 0.00 0.00 0.00 0.00 0.00 0.00 0.00 0.00 0.00 0.00 0.00 0.00 0.00 0.00 0.00 0.00 0.00 0.00 0.00 0.00 0.00 0.00 0.00 0.00 0.00 0.00 0.00 0.00 0.00 0.00 0.00 0.00 0.00 0.00 0.00 0.00
0.00 0.00 0.00 0.00 0.00 0.00 0.00 0.00 0.00 0.00 0.00 0.00 0.00 0.00 0.00 0.00 0.00 0.00 0.00 0.00 0.00 0.00 0.00 0.00 0.00 0.00 0.00 0.00 0.00 0.00 0.00 0.00 0.00 0.00 0.00 0.00 0.00 0.00 0.00 0.00 0.00 0.00 0.00 0.00 0.00 0.00 0.00 0.00 0.00
0.00 0.00 0.00 0.00 0.00 0.00 0.00 0.00 0.00 0.00 0.00 0.00 0.00 0.00 0.00 0.00 0.00 0.00 0.00 0.00 0.00 0.00 0.00 0.00 0.00 0.00 0.00 0.00 0.00 0.00 0.00 0.00 0.00 0.00 0.00 0.00 0.00 0.00 0.00 0.00 0.00 0.00 0.00 0.00 0.00 0.00 0.00 0.00 0.00
0.00 0.00 0.00 0.00 0.00 0.00 0.00 0.00 0.00 0.00 0.00 0.00 0.00 0.00 0.00 0.00 0.00 0.00 0.00 0.00 0.00 0.00 0.00 0.00 0.00 0.00 0.00 0.00 0.00 0.00 0.00 0.00 0.00 0.00 0.00 0.00 0.00 0.00 0.00 0.00 0.00 0.00 0.00 0.00 0.00 0.00 0.00 0.00 0.00
0.00 0.00 0.00 0.00 0.00 0.00 0.00 0.00 0.00 0.00 0.00 0.00 0.00 0.00 0.00 0.00 0.00 0.00 0.00 0.00 0.00 0.00 0.00 0.00 0.00 0.00 0.00 0.00 0.00 0.00 0.00 0.00 0.00 0.00 0.00 0.00 0.00 0.00 0.00 0.00 0.00 0.00 0.00 0.00 0.00 0.00 0.00 0.00 0.00
0.00 0.00 0.00 0.00 0.00 0.00 0.00 0.00 0.00 0.00 0.00 0.00 0.00 0.00 0.00 0.00 0.00 0.00 0.00 0.00 0.00 0.00 0.00 0.00 0.00 0.00 0.00 0.00 0.00 0.00 0.00 0.00 0.00 0.00 0.00 0.00 0.00 0.00 0.00 0.00 0.00 0.00 0.00 0.00 0.00 0.00 0.00 0.00 0.00
0.00 0.00 0.00 0.00 0.00 0.00 0.00 0.00 0.00 0.00 0.00 0.00 0.00 0.00 0.00 0.00 0.00 0.00 0.00 0.00 0.00 0.00 0.00 0.00 0.00 0.00 0.00 0.00 0.00 0.00 0.00 0.00 0.00 0.00 0.00 0.00 0.00 0.00 0.00 0.00 0.00 0.00 0.00 0.00 0.00 0.00 0.00 0.00 0.00
0.00 0.00 0.00 0.00 0.00 0.00 0.00 0.00 0.00 0.00 0.00 0.00 0.00 0.00 0.00 0.00 0.00 0.00 0.00 0.00 0.00 0.00 0.00 0.00 0.00 0.00 0.00 0.00 0.00 0.00 0.00 0.00 0.00 0.00 0.00 0.00 0.00 0.00 0.00 0.00 0.00 0.00 0.00 0.00 0.00 0.00 0.00 0.00 0.00
0.00 0.00 0.00 0.00 0.00 0.00 0.00 0.00 0.00 0.00 0.00 0.00 0.00 0.00 0.00 0.00 0.00 0.00 0.00 0.00 0.00 0.00 0.00 0.00 0.00 0.00 0.00 0.00 0.00 0.00 0.00 0.00 0.00 0.00 0.00 0.00 0.00 0.00 0.00 0.00 0.00 0.00 0.00 0.00 0.00 0.00 0.00 0.00 0.00
0.00 0.00 0.00 0.00 0.00 0.00 0.00 0.00 0.00 0.00 0.00 0.00 0.00 0.00 0.00 0.00 0.00 0.00 0.00 0.00 0.00 0.00 0.00 0.00 0.00 0.00 0.00 0.00 0.00 0.00 0.00 0.00 0.00 0.00 0.00 0.00 0.00 0.00 0.00 0.00 0.00 0.00 0.00 0.00 0.00 0.00 0.00 0.00 0.00
0.00 0.00 0.00 0.00 0.00 0.00 0.00 0.00 0.00 0.00 0.00 0.00 0.00 0.00 0.00 0.00 0.00 0.00 0.00 0.00 0.00 0.00 0.00 0.00 0.00 0.00 0.00 0.00 0.00 0.00 0.00 0.00 0.00 0.00 0.00 0.00 0.00 0.00 0.00 0.00 0.00 0.00 0.00 0.00 0.00 0.00 0.00 0.00 0.00
0.00 0.00 0.00 0.00 0.00 0.00 0.00 0.00 0.00 0.00 0.00 0.00 0.00 0.00 0.00 0.00 0.00 0.00 0.00 0.00 0.00 0.00 0.00 0.00 0.00 0.00 0.00 0.00 0.00 0.00 0.00 0.00 0.00 0.00 0.00 0.00 0.00 0.00 0.00 0.00 0.00 0.00 0.00 0.00 0.00 0.00 0.00 0.00 0.00
0.00 0.00 0.00 0.00 0.00 0.00 0.00 0.00 0.00 0.00 0.00 0.00 0.00 0.00 0.00 0.00 0.00 0.00 0.00 0.00 0.00 0.00 0.00 0.00 0.00 0.00 0.00 0.00 0.00 0.00 0.00 0.00 0.00 0.00 0.00 0.00 0.00 0.00 0.00 0.00 0.00 0.00 0.00 0.00 0.00 0.00 0.00 0.00 0.00
0.00 0.00 0.00 0.00 0.00 0.00 0.00 0.00 0.00 0.00 0.00 0.00 0.00 0.00 0.00 0.00 0.00 0.00 0.00 0.00 0.00 0.00 0.00 0.00 0.00 0.00 0.00 0.00 0.00 0.00 0.00 0.00 0.00 0.00 0.00 0.00 0.00 0.00 0.00 0.00 0.00 0.00 0.00 0.00 0.00 0.00 0.00 0.00 0.00
0.00 0.00 0.00 0.00 0.00 0.00 0.00 0.00 0.00 0.00 0.00 0.00 0.00 0.00 0.00 0.00 0.00 0.00 0.00 0.00 0.00 0.00 0.00 0.00 0.00 0.00 0.00 0.00 0.00 0.00 0.00 0.00 0.00 0.00 0.00 0.00 0.00 0.00 0.00 0.00 0.00 0.00 0.00 0.00 0.00 0.00 0.00 0.00 0.00
0.00 0.00 0.00 0.00 0.00 0.00 0.00 0.00 0.00 0.00 0.00 0.00 0.00 0.00 0.00 0.00 0.00 0.00 0.00 0.00 0.00 0.00 0.00 0.00 0.00 0.00 0.00 0.00 0.00 0.00 0.00 0.00 0.00 0.00 0.00 0.00 0.00 0.00 0.00 0.00 0.00 0.00 0.00 0.00 0.00 0.00 0.00 0.00 0.00
0.00 0.00 0.00 0.00 0.00 0.00 0.00 0.00 0.00 0.00 0.00 0.00 0.00 0.00 0.00 0.00 0.00 0.00 0.00 0.00 0.00 0.00 0.00 0.00 0.00 0.00 0.00 0.00 0.00 0.00 0.00 0.00 0.00 0.00 0.00 0.00 0.00 0.00 0.00 0.00 0.00 0.00 0.00 0.00 0.00 0.00 0.00 0.00 0.00
0.00 0.00 0.00 0.00 0.00 0.00 0.00 0.00 0.00 0.00 0.00 0.00 0.00 0.00 0.00 0.00 0.00 0.00 0.00 0.00 0.00 0.00 0.00 0.00 0.00 0.00 0.00 0.00 0.00 0.00 0.00 0.00 0.00 0.00 0.00 0.00 0.00 0.00 0.00 0.00 0.00 0.00 0.00 0.00 0.00 0.00 0.00 0.00 0.00
0.00 0.00 0.00 0.00 0.00 0.00 0.00 0.00 0.00 0.00 0.00 0.00 0.00 0.00 0.00 0.00 0.00 0.00 0.00 0.00 0.00 0.00 0.00 0.00 0.00 0.00 0.00 0.00 0.00 0.00 0.00 0.00 0.00 0.00 0.00 0.00 0.00 0.00 0.00 0.00 0.00 0.00 0.00 0.00 0.00 0.00 0.00 0.00 0.00
0.00 0.00 0.00 0.00 0.00 0.00 0.00 0.00 0.00 0.00 0.00 0.00 0.00 0.00 0.00 0.00 0.00 0.00 0.00 0.00 0.00 0.00 0.00 0.00 0.00 0.00 0.00 0.00 0.00 0.00 0.00 0.00 0.00 0.00 0.00 0.00 0.00 0.00 0.00 0.00 0.00 0.00 0.00 0.00 0.00 0.00 0.00 0.00 0.00
0.00 0.00 0.00 0.00 0.00 0.00 0.00 0.00 0.00 0.00 0.00 0.00 0.00 0.00 0.00 0.00 0.00 0.00 0.00 0.00 0.00 0.00 0.00 0.00 0.00 0.00 0.00 0.00 0.00 0.00 0.00 0.00 0.00 0.00 0.00 0.00 0.00 0.00 0.00 0.00 0.00 0.00 0.00 0.00 0.00 0.00 0.00 0.00 0.00
0.00 0.00 0.00 0.00 0.00 0.00 0.00 0.00 0.00 0.00 0.00 0.00 0.00 0.00 0.00 0.00 0.00 0.00 0.00 0.00 0.00 0.00 0.00 0.00 0.00 0.00 0.00 0.00 0.00 0.00 0.00 0.00 0.00 0.00 0.00 0.00 0.00 0.00 0.00 0.00 0.00 0.00 0.00 0.00 0.00 0.00 0.00 0.00 0.00
0.00 0.00 0.00 0.00 0.00 0.00 0.00 0.00 0.00 0.00 0.00 0.00 0.00 0.00 0.00 0.00 0.00 0.00 0.00 0.00 0.00 0.00 0.00 0.00 0.00 0.00 0.00 0.00 0.00 0.00 0.00 0.00 0.00 0.00 0.00 0.00 0.00 0.00 0.00 0.00 0.00 0.00 0.00 0.00 0.00 0.00 0.00 0.00 0.00
0.00 0.00 0.00 0.00 0.00 0.00 0.00 0.00 0.00 0.00 0.00 0.00 0.00 0.00 0.00 0.00 0.00 0.00 0.00 0.00 0.00 0.00 0.00 0.00 0.00 0.00 0.00 0.00 0.00 0.00 0.00 0.00 0.00 0.00 0.00 0.00 0.00 0.00 0.00 0.00 0.00 0.00 0.00 0.00 0.00 0.00 0.00 0.00 0.00
0.00 0.00 0.00 0.00 0.00 0.00 0.00 0.00 0.00 0.00 0.00 0.00 0.00 0.00 0.00 0.00 0.00 0.00 0.00 0.00 0.00 0.00 0.00 0.00 0.00 0.00 0.00 0.00 0.00 0.00 0.00 0.00 0.00 0.00 0.00 0.00 0.00 0.00 0.00 0.00 0.00 0.00 0.00 0.00 0.00 0.00 0.00 0.00 0.00
0.00 0.00 0.00 0.00 0.00 0.00 0.00 0.00 0.00 0.00 0.00 0.00 0.00 0.00 0.00 0.00 0.00 0.00 0.00 0.00 0.00 0.00 0.00 0.00 0.00 0.00 0.00 0.00 0.00 0.00 0.00 0.00 0.00 0.00 0.00 0.00 0.00 0.00 0.00 0.00 0.00 0.00 0.00 0.00 0.00 0.00 0.00 0.00 0.00
0.00 0.00 0.00 0.00 0.00 0.00 0.00 0.00 0.00 0.00 0.00 0.00 0.00 0.00 0.00 0.00 0.00 0.00 0.00 0.00 0.00 0.00 0.00 0.00 0.00 0.00 0.00 0.00 0.00 0.00 0.00 0.00 0.00 0.00 0.00 0.00 0.00 0.00 0.00 0.00 0.00 0.00 0.00 0.00 0.00 0.00 0.00 0.00 0.00
MSLP
1015.62 1016.39 1017.46 1018.76 1020.17 1021.58 1022.85 1023.91 1024.70 1025.24 1025.57 1025.77 1025.92 1026.10 1026.35 1026.67 1027.05 1027.43 1027.75 1027.96 1028.05 1028.02 1027.92 1027.78 1027.68 1027.66 1027.72 1027.87 1028.05 1028.23 1028.34 1028.36 1028.28 1028.13 1027.94 1027.76 1027.63 1027.58 1027.61 1027.68 1027.75 1027.79 1027.75 1027.62 1027.41 1027.16 1026.91 1026.71 1026.59
1016.11 1017.08 1018.32 1019.72 1021.15 1022.49 1023.62 1024.47 1025.03 1025.33 1025.46 1025.50 1025.57 1025.72 1026.00 1026.38 1026.84 1027.28 1027.65 1027.90 1028.00 1027.97 1027.86 1027.72 1027.64 1027.64 1027.75 1027.95 1028.19 1028.43 1028.61 1028.69 1028.66 1028.56 1028.40 1028.25 1028.14 1028.09 1028.10 1028.14 1028.18 1028.18 1028.11 1027.96 1027.75 1027.50 1027.27 1027.09 1027.01
1016.75 1017.86 1019.18 1020.61 1021.98 1023.19 1024.14 1024.79 1025.14 1025.25 1025.22 1025.18 1025.22 1025.39 1025.73 1026.19 1026.72 1027.24 1027.66 1027.94 1028.05 1028.03 1027.92 1027.79 1027.71 1027.73 1027.86 1028.08 1028.36 1028.64 1028.86 1028.99 1029.02 1028.96 1028.85 1028.73 1028.63 1028.58 1028.56 1028.56 1028.55 1028.50 1028.38 1028.20 1027.97 1027.74 1027.54 1027.41 1027.38
1017.49 1018.67 1020.01 1021.37 1022.63 1023.67 1024.42 1024.86 1025.03 1025.01 1024.91 1024.84 1024.90 1025.13 1025.54 1026.09 1026.70 1027.28 1027.75 1028.06 1028.19 1028.18 1028.08 1027.96 1027.89 1027.92 1028.05 1028.28 1028.56 1028.84 1029.08 1029.25 1029.32 1029.31 1029.25 1029.17 1029.10 1029.04 1029.00 1028.95 1028.88 1028.77 1028.60 1028.39 1028.15 1027.94 1027.78 1027.72 1027.76
1018.26 1019.46 1020.74 1021.98 1023.06 1023.91 1024.46 1024.73 1024.77 1024.67 1024.55 1024.51 1024.63 1024.95 1025.45 1026.08 1026.75 1027.37 1027.88 1028.22 1028.38 1028.40 1028.32 1028.22 1028.16 1028.18 1028.30 1028.50 1028.76 1029.02 1029.26 1029.44 1029.55 1029.60 1029.60 1029.57 1029.54 1029.49 1029.43 1029.34 1029.22 1029.05 1028.83 1028.59 1028.36 1028.17 1028.07 1028.08 1028.19
1019.01 1020.16 1021.33 1022.39 1023.28 1023.92 1024.29 1024.42 1024.39 1024.27 1024.19 1024.23 1024.44 1024.85 1025.42 1026.11 1026.82 1027.47 1027.99 1028.36 1028.55 1028.60 1028.57 1028.50 1028.46 1028.48 1028.58 1028.74 1028.96 1029.19 1029.41 1029.59 1029.74 1029.84 1029.91 1029.95 1029.96 1029.94 1029.88 1029.77 1029.60 1029.38 1029.13 1028.88 1028.66 1028.51 1028.47 1028.53 1028.71
1019.66 1020.72 1021.73 1022.60 1023.27 1023.72 1023.94 1023.99 1023.93 1023.85 1023.84 1023.98 1024.30 1024.79 1025.42 1026.14 1026.85 1027.50 1028.03 1028.40 1028.62 1028.72 1028.74 1028.72 1028.72 1028.75 1028.83 1028.97 1029.14 1029.33 1029.53 1029.72 1029.89 1030.05 1030.19 1030.30 1030.37 1030.39 1030.35 1030.23 1030.04 1029.80 1029.53 1029.28 1029.08 1028.98 1028.98 1029.11 1029.32
1020.20 1021.13 1021.95 1022.61 1023.09 1023.36 1023.47 1023.46 1023.42 1023.41 1023.51 1023.76 1024.17 1024.73 1025.39 1026.11 1026.80 1027.42 1027.92 1028.29 1028.54 1028.69 1028.78 1028.83 1028.88 1028.94 1029.03 1029.15 1029.29 1029.45 1029.63 1029.83 1030.03 1030.25 1030.45 1030.63 1030.77 1030.84 1030.82 1030.71 1030.52 1030.28 1030.02 1029.78 1029.62 1029.55 1029.61 1029.77 1030.00
1020.60 1021.38 1022.01 1022.48 1022.77 1022.90 1022.92 1022.89 1022.88 1022.96 1023.16 1023.51 1024.00 1024.61 1025.28 1025.96 1026.60 1027.17 1027.63 1028.00 1028.27 1028.48 1028.64 1028.77 1028.89 1029.01 1029.14 1029.27 1029.40 1029.55 1029.73 1029.93 1030.16 1030.42 1030.68 1030.92 1031.12 1031.23 1031.25 1031.17 1031.00 1030.77 1030.54 1030.34 1030.22 1030.19 1030.28 1030.45 1030.68
1020.89 1021.51 1021.97 1022.25 1022.38 1022.39 1022.35 1022.31 1022.34 1022.50 1022.79 1023.22 1023.76 1024.38 1025.02 1025.65 1026.23 1026.73 1027.15 1027.50 1027.80 1028.06 1028.30 1028.53 1028.74 1028.94 1029.12 1029.28 1029.44 1029.60 1029.78 1029.99 1030.25 1030.54 1030.84 1031.13 1031.37 1031.52 1031.58 1031.53 1031.41 1031.22 1031.04 1030.89 1030.81 1030.82 1030.93 1031.10 1031.30
1021.11 1021.59 1021.88 1022.01 1022.00 1021.91 1021.81 1021.76 1021.82 1022.03 1022.37 1022.84 1023.41 1024.01 1024.61 1025.18 1025.68 1026.11 1026.49 1026.83 1027.15 1027.46 1027.78 1028.10 1028.42 1028.71 1028.96 1029.19 1029.38 1029.57 1029.77 1029.99 1030.26 1030.57 1030.89 1031.20 1031.47 1031.66 1031.76 1031.76 1031.68 1031.57 1031.44 1031.35 1031.32 1031.37 1031.48 1031.63 1031.78
1021.31 1021.66 1021.82 1021.81 1021.68 1021.51 1021.35 1021.29 1021.34 1021.56 1021.91 1022.39 1022.93 1023.50 1024.05 1024.54 1024.98 1025.35 1025.69 1026.01 1026.35 1026.72 1027.11 1027.53 1027.94 1028.32 1028.67 1028.96 1029.21 1029.44 1029.66 1029.89 1030.17 1030.47 1030.79 1031.11 1031.39 1031.61 1031.75 1031.81 1031.80 1031.76 1031.71 1031.69 1031.71 1031.78 1031.88 1032.00 1032.08
1021.53 1021.77 1021.81 1021.70 1021.48 1021.23 1021.02 1020.90 1020.92 1021.10 1021.42 1021.85 1022.34 1022.85 1023.34 1023.77 1024.15 1024.49 1024.80 1025.12 1025.48 1025.89 1026.34 1026.83 1027.33 1027.81 1028.24 1028.61 1028.92 1029.19 1029.43 1029.68 1029.94 1030.23 1030.53 1030.84 1031.13 1031.37 1031.56 1031.68 1031.75 1031.79 1031.83 1031.87 1031.94 1032.02 1032.11 1032.17 1032.16
1021.76 1021.93 1021.89 1021.70 1021.42 1021.10 1020.82 1020.63 1020.57 1020.67 1020.90 1021.24 1021.65 1022.09 1022.52 1022.90 1023.25 1023.56 1023.86 1024.19 1024.57 1025.01 1025.52 1026.07 1026.64 1027.20 1027.71 1028.15 1028.52 1028.83 1029.10 1029.35 1029.60 1029.86 1030.14 1030.43 1030.72 1030.98 1031.21 1031.40 1031.56 1031.69 1031.80 1031.91 1032.01 1032.10 1032.15 1032.14 1032.05
1021.99 1022.10 1022.02 1021.79 1021.46 1021.09 1020.73 1020.45 1020.28 1020.25 1020.36 1020.58 1020.89 1021.25 1021.61 1021.97 1022.29 1022.60 1022.92 1023.26 1023.66 1024.13 1024.67 1025.27 1025.89 1026.51 1027.09 1027.60 1028.03 1028.38 1028.67 1028.92 1029.16 1029.40 1029.65 1029.92 1030.21 1030.49 1030.77 1031.02 1031.26 1031.47 1031.66 1031.82 1031.94 1032.02 1032.03 1031.95 1031.77
1022.18 1022.26 1022.17 1021.92 1021.56 1021.14 1020.71 1020.32 1020.01 1019.83 1019.78 1019.86 1020.05 1020.32 1020.64 1020.97 1021.30 1021.63 1021.97 1022.34 1022.77 1023.26 1023.82 1024.45 1025.11 1025.77 1026.41 1026.98 1027.46 1027.86 1028.18 1028.44 1028.66 1028.88 1029.11 1029.36 1029.65 1029.95 1030.27 1030.59 1030.90 1031.18 1031.43 1031.62 1031.76 1031.81 1031.78 1031.64 1031.39
1022.27 1022.35 1022.26 1022.03 1021.67 1021.21 1020.70 1020.20 1019.74 1019.39 1019.16 1019.08 1019.14 1019.32 1019.59 1019.91 1020.26 1020.62 1021.00 1021.41 1021.86 1022.37 1022.95 1023.59 1024.28 1024.98 1025.67 1026.29 1026.83 1027.28 1027.63 1027.90 1028.13 1028.33 1028.55 1028.79 1029.08 1029.40 1029.76 1030.13 1030.49 1030.82 1031.11 1031.33 1031.46 1031.50 1031.43 1031.24 1030.93
1022.24 1022.32 1022.27 1022.07 1021.73 1021.25 1020.67 1020.05 1019.43 1018.89 1018.48 1018.23 1018.15 1018.24 1018.45 1018.77 1019.15 1019.56 1019.98 1020.43 1020.90 1021.43 1022.02 1022.68 1023.39 1024.13 1024.85 1025.53 1026.13 1026.62 1027.01 1027.32 1027.56 1027.76 1027.98 1028.22 1028.51 1028.85 1029.22 1029.63 1030.02 1030.39 1030.70 1030.93 1031.07 1031.09 1031.00 1030.78 1030.46
1022.06 1022.18 1022.18 1022.04 1021.72 1021.23 1020.59 1019.85 1019.06 1018.33 1017.73 1017.30 1017.08 1017.07 1017.24 1017.55 1017.96 1018.41 1018.88 1019.37 1019.88 1020.42 1021.02 1021.69 1022.41 1023.17 1023.94 1024.67 1025.32 1025.88 1026.32 1026.66 1026.93 1027.15 1027.37 1027.62 1027.91 1028.26 1028.65 1029.07 1029.49 1029.87 1030.19 1030.43 1030.57 1030.59 1030.49 1030.29 1029.98
1021.79 1021.96 1022.03 1021.95 1021.68 1021.18 1020.47 1019.61 1018.66 1017.74 1016.93 1016.32 1015.96 1015.84 1015.96 1016.26 1016.69 1017.18 1017.70 1018.23 1018.76 1019.32 1019.92 1020.59 1021.32 1022.11 1022.91 1023.68 1024.39 1025.01 1025.51 1025.90 1026.21 1026.46 1026.71 1026.97 1027.27 1027.62 1028.02 1028.44 1028.86 1029.25 1029.57 1029.81 1029.96 1030.00 1029.93 1029.77 1029.50
1021.47 1021.71 1021.87 1021.87 1021.64 1021.13 1020.37 1019.38 1018.27 1017.15 1016.14 1015.34 1014.83 1014.61 1014.66 1014.94 1015.38 1015.90 1016.45 1017.01 1017.56 1018.12 1018.72 1019.39 1020.12 1020.91 1021.74 1022.55 1023.32 1023.99 1024.55 1025.01 1025.37 1025.66 1025.94 1026.22 1026.54 1026.90 1027.30 1027.72 1028.13 1028.51 1028.83 1029.08 1029.24 1029.32 1029.30 1029.20 1029.02
1021.20 1021.53 1021.79 1021.86 1021.67 1021.16 1020.32 1019.21 1017.93 1016.62 1015.41 1014.44 1013.77 1013.43 1013.41 1013.66 1014.09 1014.62 1015.19 1015.76 1016.31 1016.87 1017.46 1018.11 1018.83 1019.62 1020.45 1021.29 1022.10 1022.82 1023.45 1023.96 1024.38 1024.73 1025.05 1025.37 1025.71 1026.08 1026.49 1026.90 1027.31 1027.68 1028.00 1028.26 1028.45 1028.56 1028.61 1028.59 1028.50
1021.04 1021.48 1021.83 1021.98 1021.82 1021.29 1020.37 1019.14 1017.70 1016.20 1014.81 1013.66 1012.84 1012.39 1012.29 1012.49 1012.89 1013.42 1013.98 1014.54 1015.09 1015.63 1016.19 1016.81 1017.50 1018.27 1019.10 1019.95 1020.78 1021.55 1022.23 1022.80 1023.28 1023.69 1024.06 1024.42 1024.80 1025.19 1025.61 1026.03 1026.43 1026.80 1027.12 1027.38 1027.59 1027.75 1027.86 1027.91 1027.91
1021.04 1021.58 1022.03 1022.24 1022.09 1021.53 1020.54 1019.19 1017.60 1015.94 1014.38 1013.07 1012.11 1011.55 1011.36 1011.50 1011.86 1012.35 1012.90 1013.44 1013.95 1014.46 1014.99 1015.56 1016.22 1016.96 1017.76 1018.60 1019.44 1020.22 1020.94 1021.56 1022.09 1022.56 1022.99 1023.41 1023.83 1024.25 1024.69 1025.12 1025.52 1025.89 1026.21 1026.48 1026.70 1026.89 1027.05 1027.16 1027.22
1021.21 1021.84 1022.35 1022.60 1022.45 1021.84 1020.77 1019.32 1017.60 1015.81 1014.11 1012.67 1011.60 1010.93 1010.66 1010.73 1011.04 1011.49 1011.99 1012.49 1012.97 1013.43 1013.91 1014.44 1015.05 1015.74 1016.50 1017.32 1018.13 1018.92 1019.65 1020.31 1020.89 1021.41 1021.89 1022.36 1022.83 1023.29 1023.76 1024.20 1024.61 1024.98 1025.30 1025.57 1025.80 1026.00 1026.18 1026.33 1026.42
1021.48 1022.18 1022.72 1022.97 1022.79 1022.13 1020.99 1019.45 1017.64 1015.75 1013.97 1012.44 1011.28 1010.54 1010.20 1010.19 1010.44 1010.83 1011.28 1011.73 1012.16 1012.58 1013.01 1013.49 1014.05 1014.68 1015.40 1016.16 1016.95 1017.71 1018.43 1019.09 1019.70 1020.26 1020.78 1021.30 1021.81 1022.32 1022.81 1023.28 1023.71 1024.08 1024.39 1024.66 1024.89 1025.08 1025.25 1025.40 1025.50
1021.78 1022.49 1023.02 1023.22 1023.00 1022.27 1021.08 1019.48 1017.63 1015.70 1013.88 1012.32 1011.12 1010.33 1009.93 1009.86 1010.04 1010.37 1010.75 1011.15 1011.53 1011.91 1012.29 1012.73 1013.23 1013.81 1014.47 1015.18 1015.90 1016.63 1017.31 1017.96 1018.56 1019.13 1019.68 1020.23 1020.77 1021.32 1021.85 1022.34 1022.79 1023.17 1023.49 1023.74 1023.95 1024.12 1024.27 1024.38 1024.46
1022.00 1022.66 1023.12 1023.24 1022.94 1022.15 1020.91 1019.30 1017.46 1015.56 1013.77 1012.23 1011.04 1010.23 1009.79 1009.67 1009.79 1010.05 1010.37 1010.71 1011.04 1011.37 1011.72 1012.12 1012.58 1013.11 1013.70 1014.35 1015.01 1015.66 1016.29 1016.89 1017.46 1018.01 1018.56 1019.12 1019.70 1020.27 1020.83 1021.36 1021.83 1022.22 1022.55 1022.79 1022.98 1023.12 1023.22 1023.29 1023.32
1022.06 1022.59 1022.92 1022.92 1022.52 1021.67 1020.42 1018.84 1017.07 1015.26 1013.56 1012.10 1010.97 1010.18 1009.74 1009.57 1009.63 1009.81 1010.07 1010.34 1010.63 1010.92 1011.24 1011.61 1012.03 1012.52 1013.06 1013.63 1014.21 1014.78 1015.33 1015.85 1016.36 1016.87 1017.41 1017.96 1018.55 1019.14 1019.74 1020.29 1020.79 1021.21 1021.55 1021.79 1021.96 1022.07 1022.13 1022.14 1022.12
1021.89 1022.25 1022.39 1022.24 1021.72 1020.82 1019.58 1018.08 1016.43 1014.77 1013.23 1011.90 1010.87 1010.14 1009.70 1009.50 1009.49 1009.60 1009.78 1009.99 1010.22 1010.48 1010.77 1011.11 1011.51 1011.96 1012.44 1012.94 1013.43 1013.91 1014.36 1014.80 1015.23 1015.69 1016.18 1016.72 1017.31 1017.93 1018.55 1019.14 1019.68 1020.13 1020.49 1020.74 1020.90 1020.98 1021.00 1020.96 1020.88
Thickness
5731 5732 5731 5720 5696 5671 5669 5671 5668 5664 5665 5664 5662 5664 5660 5656 5652 5653 5643 5643 5642 5641 5639 5638 5635 5634 5632 5631 5630 5629 5628 5627 5627 5627 5626 5626 5625 5625 5625 5625 5625 5626 5626 5626 5627 5627 5628 5628 5629
5732 5732 5724 5706 5681 5666 5669 5674 5668 5670 5668 5661 5661 5660 5660 5658 5651 5644 5641 5641 5641 5640 5638 5636 5634 5631 5629 5628 5626 5625 5624 5623 5622 5621 5620 5619 5619 5618 5618 5618 5618 5619 5619 5619 5620 5620 5620 5620 5620
5733 5731 5711 5692 5679 5671 5680 5678 5672 5669 5665 5665 5661 5659 5661 5659 5649 5644 5645 5642 5640 5638 5636 5634 5632 5629 5627 5624 5622 5621 5619 5618 5616 5615 5613 5612 5612 5611 5611 5611 5611 5611 5611 5612 5612 5612 5611 5611 5611
5731 5719 5703 5688 5684 5680 5679 5678 5672 5667 5666 5666 5662 5659 5656 5657 5652 5648 5645 5642 5639 5636 5634 5632 5629 5626 5623 5621 5618 5616 5614 5612 5610 5608 5606 5605 5605 5604 5603 5603 5603 5603 5603 5603 5603 5603 5602 5602 5602
5726 5709 5692 5680 5684 5681 5678 5678 5672 5670 5669 5665 5663 5662 5659 5655 5652 5648 5644 5640 5637 5634 5632 5629 5627 5623 5620 5617 5614 5611 5609 5607 5604 5602 5599 5598 5597 5596 5595 5595 5594 5594 5594 5594 5593 5593 5592 5591 5590
5712 5701 5684 5679 5685 5682 5679 5678 5675 5673 5669 5663 5662 5662 5662 5653 5648 5645 5642 5638 5636 5633 5629 5627 5624 5621 5617 5613 5610 5607 5604 5601 5599 5596 5593 5590 5589 5588 5586 5586 5585 5584 5583 5583 5582 5581 5580 5578 5577
5707 5694 5686 5688 5681 5681 5681 5678 5675 5672 5668 5667 5665 5664 5662 5649 5647 5644 5640 5636 5633 5630 5627 5624 5621 5618 5614 5611 5607 5604 5600 5597 5593 5590 5586 5583 5580 5579 5577 5576 5575 5574 5572 5571 5570 5569 5566 5564 5562
5710 5693 5683 5677 5677 5682 5685 5679 5680 5674 5673 5671 5666 5667 5666 5653 5645 5639 5635 5631 5629 5627 5624 5621 5618 5615 5611 5607 5604 5600 5596 5592 5588 5584 5580 5576 5572 5570 5568 5566 5565 5563 5561 5560 5558 5555 5552 5549 5546
5713 5690 5680 5680 5677 5686 5684 5678 5679 5677 5670 5665 5664 5667 5665 5653 5642 5634 5629 5626 5625 5624 5622 5619 5616 5612 5608 5604 5601 5597 5593 5588 5583 5579 5574 5570 5566 5563 5560 5558 5556 5553 5551 5549 5546 5542 5538 5534 5531
5703 5686 5689 5693 5687 5689 5681 5679 5676 5672 5669 5667 5665 5661 5654 5648 5641 5636 5632 5629 5626 5623 5621 5618 5615 5611 5607 5603 5598 5594 5589 5584 5579 5575 5570 5566 5561 5557 5553 5550 5547 5544 5541 5537 5534 5529 5524 5520 5517
5700 5693 5694 5692 5691 5689 5681 5678 5675 5672 5669 5673 5672 5664 5650 5645 5641 5639 5637 5634 5630 5626 5622 5618 5615 5611 5606 5601 5596 5591 5586 5581 5576 5571 5566 5561 5556 5551 5547 5543 5539 5535 5531 5527 5522 5517 5512 5507 5502
5692 5688 5688 5687 5688 5685 5682 5679 5672 5672 5683 5684 5679 5668 5654 5648 5646 5645 5643 5637 5631 5626 5624 5620 5615 5610 5605 5600 5595 5589 5584 5578 5573 5567 5562 5556 5551 5545 5540 5536 5531 5527 5522 5516 5511 5505 5499 5493 5488
5688 5686 5686 5685 5685 5684 5681 5677 5676 5679 5684 5682 5675 5663 5657 5654 5653 5651 5647 5640 5633 5629 5626 5621 5616 5611 5605 5599 5594 5588 5582 5577 5571 5564 5558 5552 5546 5539 5534 5528 5523 5517 5511 5506 5499 5493 5487 5481 5475
5684 5682 5682 5683 5683 5682 5679 5678 5676 5688 5687 5679 5671 5664 5661 5659 5658 5652 5646 5643 5638 5634 5629 5624 5618 5612 5606 5599 5593 5588 5581 5575 5568 5562 5555 5548 5541 5534 5527 5521 5514 5508 5502 5495 5489 5482 5475 5468 5462
5682 5681 5682 5681 5680 5678 5677 5675 5680 5693 5685 5679 5672 5667 5663 5662 5660 5658 5656 5652 5647 5640 5633 5626 5619 5612 5605 5599 5593 5587 5580 5573 5566 5559 5552 5544 5537 5529 5522 5514 5507 5500 5492 5485 5478 5471 5464 5456 5450
5679 5674 5673 5680 5676 5673 5672 5673 5696 5694 5683 5681 5675 5667 5665 5664 5663 5664 5660 5656 5649 5642 5635 5628 5621 5613 5606 5599 5592 5586 5578 5571 5565 5557 5549 5541 5533 5525 5516 5508 5500 5492 5484 5476 5468 5460 5453 5445 5438
5669 5665 5670 5674 5671 5666 5665 5673 5692 5690 5682 5682 5680 5673 5670 5669 5667 5666 5663 5658 5652 5645 5638 5630 5623 5616 5608 5599 5591 5584 5576 5569 5562 5554 5546 5538 5529 5520 5511 5502 5493 5484 5475 5466 5458 5451 5442 5433 5426
5670 5666 5664 5665 5671 5661 5658 5670 5693 5689 5682 5683 5684 5681 5676 5677 5681 5675 5667 5661 5654 5647 5639 5632 5624 5617 5608 5597 5588 5579 5572 5565 5558 5551 5543 5535 5525 5516 5506 5496 5487 5477 5467 5457 5448 5439 5431 5422 5414
5673 5667 5660 5664 5670 5658 5660 5673 5694 5699 5686 5688 5690 5686 5686 5690 5690 5679 5671 5663 5655 5647 5640 5633 5625 5617 5606 5595 5586 5576 5569 5563 5555 5548 5540 5531 5521 5511 5501 5491 5480 5470 5460 5450 5440 5430 5420 5411 5402
5666 5661 5657 5662 5665 5657 5659 5673 5695 5700 5699 5702 5701 5699 5696 5694 5689 5681 5673 5666 5660 5653 5644 5636 5628 5619 5610 5602 5591 5580 5571 5562 5554 5545 5536 5527 5517 5507 5496 5485 5474 5464 5453 5442 5431 5420 5409 5398 5388
5662 5656 5657 5658 5663 5657 5653 5674 5692 5703 5702 5701 5699 5700 5698 5697 5695 5687 5677 5670 5663 5657 5651 5644 5633 5623 5613 5602 5588 5576 5566 5557 5549 5541 5533 5524 5513 5502 5491 5480 5468 5457 5446 5434 5423 5411 5398 5386 5373
5653 5661 5658 5658 5648 5642 5649 5651 5691 5696 5699 5706 5705 5698 5697 5697 5696 5691 5682 5674 5669 5666 5657 5646 5636 5625 5614 5601 5590 5580 5572 5564 5555 5544 5533 5521 5510 5498 5487 5475 5463 5451 5439 5427 5415 5403 5389 5375 5362
5658 5662 5656 5649 5642 5634 5637 5635 5677 5685 5695 5710 5713 5709 5706 5703 5697 5694 5690 5684 5677 5668 5657 5647 5636 5625 5614 5603 5594 5583 5575 5565 5551 5538 5526 5515 5504 5493 5482 5470 5457 5445 5433 5420 5408 5394 5380 5365 5351
5658 5651 5639 5627 5623 5625 5635 5624 5656 5680 5695 5705 5711 5711 5708 5705 5699 5695 5691 5683 5675 5665 5656 5646 5635 5626 5615 5603 5593 5583 5575 5561 5545 5532 5521 5510 5498 5487 5476 5464 5452 5439 5426 5413 5400 5386 5371 5356 5341
5651 5636 5622 5625 5621 5625 5632 5627 5655 5692 5695 5695 5699 5702 5702 5699 5695 5691 5685 5679 5673 5664 5656 5646 5636 5626 5615 5603 5592 5583 5573 5560 5547 5534 5521 5507 5494 5483 5472 5460 5447 5434 5420 5407 5393 5379 5364 5349 5333
5641 5633 5620 5616 5612 5618 5628 5628 5666 5694 5692 5689 5688 5688 5689 5691 5689 5685 5683 5678 5671 5663 5653 5643 5634 5626 5613 5602 5592 5581 5569 5556 5545 5533 5521 5508 5496 5483 5470 5456 5442 5428 5414 5400 5387 5372 5358 5342 5326
5633 5625 5624 5609 5605 5600 5617 5633 5659 5689 5691 5689 5685 5682 5681 5681 5680 5678 5675 5669 5663 5657 5650 5642 5632 5623 5612 5601 5589 5577 5565 5554 5543 5531 5517 5505 5492 5479 5465 5451 5437 5422 5408 5394 5380 5366 5352 5336 5321
5634 5621 5606 5604 5597 5596 5608 5622 5645 5671 5681 5682 5679 5676 5674 5672 5671 5670 5668 5663 5657 5651 5644 5634 5626 5617 5608 5596 5585 5575 5563 5551 5539 5526 5513 5501 5488 5474 5460 5446 5431 5417 5403 5389 5374 5361 5346 5331 5316
5621 5616 5609 5596 5589 5587 5587 5621 5658 5662 5668 5666 5667 5665 5663 5662 5663 5664 5663 5659 5652 5644 5636 5627 5619 5609 5600 5591 5581 5571 5560 5547 5534 5523 5512 5498 5485 5470 5456 5442 5427 5412 5398 5384 5370 5356 5342 5327 5312
5618 5614 5602 5596 5594 5576 5571 5617 5663 5660 5658 5654 5653 5656 5656 5656 5658 5658 5655 5650 5642 5634 5626 5618 5611 5603 5596 5586 5575 5565 5554 5541 5530 5520 5508 5494 5481 5467 5453 5438 5423 5408 5394 5380 5366 5352 5339 5324 5309